星链-30500 (STARLINK-30500 )

导读

STARLINK-30500是美国SpaceX公司星链项目的低轨通信卫星,于2023年10月18日发射,属于星链卫星组网扩张中的一环。它运行于约550公里近地轨道,配备相控阵天线与激光星间链路,依托氩霍尔推进器实现轨道机动,可为全球用户提供低延迟高速宽带服务,也支持后续手机直连通信功能,是星链全球覆盖星座的重要组成单元。

Basic Information
目录编号:
58076
目录名称:
STARLINK-30500
国际标识:
2023-160B
轨道中心:
EARTH
卫星名称:
星链-30500
卫星全名:
星链-30500 (STARLINK-30500 )
卫星状态:
在轨 (已飞行976 天)
发射日期:
2023-10-18 UTC
国别 :
美国 (US)
星等 :
--
Orbit Information
数据来源 国际轨道数据 AOE轨道数据
星历时间 2026-06-19T18:00:11+0800
1天前
查看轨道信息
2026-06-17T07:00:00+0800
3天前
查看轨道信息
半长轴 6861.184km 6861.176km
偏心率 0.0001641 0.0001095
轨道倾角 43.002° 42.997°
近地点辐角 273.338° 224.977°
升交点赤经 223.384° 237.272°
平近点角 86.729° 279.463°
近地点 481.921km 482.287km
远地点 484.173km 483.791km
周期 94.267分钟 94.267分钟
每日圈数 15.275808 15.275834
Detailed Information
固有亮度:
5
最大亮度:
0.3
卫星平台:
Starlink v2.0 mini
覆盖范围:
全球
运营商:
太空探索技术公司
运营商所在国:
美国
制造商(研发单位):
太空探索技术公司
制造商所在国:
美国
使用方式:
暂无
Satellite Introduction
星链(Starlink)计划是由太空探索技术公司(SpaceX)提出的一个巨型低轨卫星互联网星座项目,计划在2019年至2024年间在太空搭建由约1.2万颗卫星组成的“星链”网络,其中1584颗将部署在地球上空550千米处的近地轨道,并从2020年开始工作。该卫星仍在工作。
2D Orbit Map
3D Orbit Map
Orbit Altitude Analysis Chart
Orbit Inclination Analysis Chart
Orbit Comprehensive Analysis Chart
View Comprehensive Chart